Weather History for Nadi, Fiji

Change the Weather History Date:

Friday, February 22, 2013

  Actual Average Record
Temperature  
Mean Temperature 78 °F -  
Max Temperature 84 °F 86 °F 91 °F (1998)
Min Temperature 73 °F 73 °F 71 °F (2009)
Cooling Degree Days 14    
Growing Degree Days 28 (Base 50)    
Moisture  
Dew Point 75 °F    
Average Humidity 92    
Maximum Humidity 100    
Minimum Humidity 79    
Precipitation  
Precipitation 1.73 in 0.42 in - ()
Sea Level Pressure  
Sea Level Pressure 29.76 in    
Wind  
Wind Speed 5 mph ()    
Max Wind Speed 21 mph    
Max Gust Speed -    
Visibility 6.5 miles    
Events Rain , Thunderstorm    
Averages and records for this station are not official NWS values.
T = Trace of Precipitation, MM = Missing Value Source: Averaged Metar Reports

Daily Weather History Graph

Daily Weather History Graph

Search for Another Location

Airport:

Trip Planner

Search our weather history database for the weather conditions in past years. The results will help you decide how hot, cold, wet, or windy it might be!

Date:

Astronomy

Feb. 22, 2013 Rise Set
Actual Time 6:06 AM FJT 6:40 PM FJT
Civil Twilight 5:44 AM FJT 7:02 PM FJT
Nautical Twilight 5:18 AM FJT 7:28 PM FJT
Astronomical Twilight 4:52 AM FJT 7:54 PM FJT
Moon 3:51 PM FJT (2/22) 2:36 AM FJT (2/22)
Length of Visible Light 13h 17m
Length of Day
12h 33m
Waxing Gibbous, 85% of the Moon is Illuminated
Feb 22
Waxing Gibbous
Feb 26
Full
Mar 5
Last Quarter
Mar 12
New
Mar 20
First Quarter

Hourly Weather History & Observations

Time (FJT) Temp. Heat Index Dew Point Humidity Pressure Visibility Wind Dir Wind Speed Gust Speed Precip Events Conditions
12:00 AM 75 °F - 75 °F 99% 29.76 in 12 mi East 3.5 mph - - Rain Light Rain
12:00 AM 75.2 °F - 75.2 °F 100% 29.74 in 6.2 mi East 3.5 mph - N/A Rain Light Rain
1:00 AM 75.2 °F - 75.2 °F 100% 29.74 in 6.2 mi Calm Calm - N/A   Overcast
2:00 AM 75.2 °F - 75.2 °F 100% 29.74 in 6.2 mi SSE 3.5 mph - N/A   Overcast
3:00 AM 75 °F - 74 °F 96% 29.72 in 12 mi ESE 3.5 mph - -   Partly Cloudy
3:00 AM 75.2 °F - 73.4 °F 94% 29.71 in 6.2 mi ESE 3.5 mph - N/A   Overcast
4:00 AM 75.2 °F - 73.4 °F 94% 29.68 in 6.2 mi East 3.5 mph - N/A   Overcast
5:00 AM 77.0 °F - 73.4 °F 89% 29.71 in 6.2 mi East 3.5 mph - N/A   Overcast
6:00 AM 75 °F - 74 °F 96% 29.73 in 12 mi SE 3.5 mph - -   Partly Cloudy
6:00 AM 75.2 °F - 73.4 °F 94% 29.71 in 6.2 mi SE 3.5 mph - N/A   Overcast
7:00 AM 75.2 °F - 73.4 °F 94% 29.74 in 6.2 mi Calm Calm - N/A   Overcast
8:00 AM 77.0 °F - 77.0 °F 100% 29.77 in 6.2 mi Calm Calm - N/A Rain Light Rain
9:00 AM 82.4 °F 90.9 °F 77.0 °F 84% 29.77 in 6.2 mi NNW 5.8 mph - N/A   Mostly Cloudy
10:00 AM 82.4 °F 89.5 °F 75.2 °F 79% 29.77 in 6.2 mi NNE 9.2 mph - N/A   Mostly Cloudy
11:00 AM 82.4 °F 89.5 °F 75.2 °F 79% 29.77 in 6.2 mi NNE 12.7 mph - N/A   Mostly Cloudy
12:00 PM 82 °F - 76 °F 79% 29.78 in 6 mi NNE 6.9 mph - - Rain Light Rain
12:00 PM 82.4 °F 90.9 °F 77.0 °F 84% 29.77 in 6.2 mi NNE 6.9 mph - N/A   Mostly Cloudy
1:00 PM 82.4 °F 90.9 °F 77.0 °F 84% 29.74 in 6.2 mi NE 12.7 mph - N/A   Mostly Cloudy
2:00 PM 84.2 °F 94.1 °F 77.0 °F 79% 29.74 in 6.2 mi North 9.2 mph - N/A   Overcast
3:00 PM 81 °F - 78 °F 87% 29.76 in 1 mi NNW 20.7 mph - - Rain , Thunderstorm Thunderstorms and Rain
3:00 PM 80.6 °F 87.1 °F 77.0 °F 89% 29.74 in 1.2 mi NNW 20.7 mph - N/A Rain , Thunderstorm Light Thunderstorms and Rain
4:00 PM 77.0 °F - 77.0 °F 100% 29.74 in 1.9 mi NNE 6.9 mph - N/A Rain Rain
4:10 PM 77.0 °F - 77.0 °F 100% 29.74 in 6.2 mi NE 6.9 mph - N/A Rain Light Rain
5:00 PM 77.0 °F - 77.0 °F 100% 29.71 in 6.2 mi NNE 5.8 mph - N/A   Overcast
6:00 PM 79 °F - 74 °F 82% 29.76 in 12 mi ENE 5.8 mph - -   Partly Cloudy
6:00 PM 78.8 °F - 75.2 °F 89% 29.74 in 6.2 mi ENE 5.8 mph - N/A   Mostly Cloudy
7:00 PM 78.8 °F - 75.2 °F 89% 29.77 in 6.2 mi ENE 3.5 mph - N/A   Mostly Cloudy
8:00 PM 77.0 °F - 75.2 °F 94% 29.80 in 6.2 mi East 5.8 mph - N/A Rain Rain
9:00 PM 76 °F - 76 °F 98% 29.85 in 6 mi East 6.9 mph - - Rain Light Rain
9:00 PM 75.2 °F - 75.2 °F 100% 29.83 in 6.2 mi East 6.9 mph - N/A Rain Rain
10:00 PM 75.2 °F - 75.2 °F 100% 29.83 in 6.2 mi Calm Calm - N/A Rain Light Rain
11:00 PM 75.2 °F - 75.2 °F 100% 29.83 in 6.2 mi NNE 9.2 mph - N/A Rain Light Rain